| time (UTC) | temp C | wind direction | speed KPH | gust KPH | rain 1hr cm | rain 24hr cm | rain mn cm | humidity % | barometer mb |
| 20260502190933 | 11 | 356 | 4.8 | 4.8 | 0.00 | 0.00 | 0.00 | 46 | 1017.8 |
| 20260502190430 | 12 | 40 | 3.2 | 8.0 | 0.00 | 0.00 | 0.00 | 44 | 1017.8 |
| 20260502185926 | 13 | 291 | 4.8 | 4.8 | 0.00 | 0.00 | 0.00 | 46 | 1017.7 |
| 20260502185421 | 13 | 64 | 1.6 | 4.8 | 0.00 | 0.00 | 0.00 | 45 | 1017.9 |
| 20260502184919 | 12 | 96 | 3.2 | 9.7 | 0.00 | 0.00 | 0.00 | 50 | 1018.2 |
| 20260502184414 | 12 | 114 | 1.6 | 3.2 | 0.00 | 0.00 | 0.00 | 49 | 1017.9 |
| 20260502183911 | 13 | 5 | 8.0 | 9.7 | 0.00 | 0.00 | 0.00 | 44 | 1018.4 |
| 20260502183407 | 11 | 60 | 3.2 | 4.8 | 0.00 | 0.00 | 0.00 | 51 | 1018.3 |
| 20260502182903 | 11 | 327 | 4.8 | 4.8 | 0.00 | 0.00 | 0.00 | 51 | 1018.3 |
| 20260502182358 | 11 | 28 | 4.8 | 4.8 | 0.00 | 0.00 | 0.00 | 44 | 1018.4 |
| 20260502181855 | 11 | 26 | 6.4 | 12.9 | 0.00 | 0.00 | 0.00 | 45 | 1018.5 |
| 20260502181354 | 11 | 1 | 8.0 | 9.7 | 0.00 | 0.00 | 0.00 | 45 | 1018.3 |
| 20260502180851 | 12 | 321 | 8.0 | 9.7 | 0.00 | 0.00 | 0.00 | 42 | 1018.6 |
| 20260502180348 | 11 | 54 | 6.4 | 11.3 | 0.00 | 0.00 | 0.00 | 46 | 1018.5 |
| 20260502170307 | 12 | 37 | 3.2 | 3.2 | 0.00 | 0.00 | 0.00 | 48 | 1019.0 |
| 20260502164255 | 11 | 326 | 4.8 | 8.0 | 0.00 | 0.00 | 0.00 | 51 | 1019.0 |
| 20260502163750 | 11 | 65 | 3.2 | 8.0 | 0.00 | 0.00 | 0.00 | 45 | 1018.9 |
| 20260502163247 | 11 | 102 | 1.6 | 8.0 | 0.00 | 0.00 | 0.00 | 52 | 1019.1 |
| 20260502162744 | 12 | 84 | 0.0 | 3.2 | 0.00 | 0.00 | 0.00 | 49 | 1019.0 |
| 20260502162241 | 11 | 129 | 3.2 | 4.8 | 0.00 | 0.00 | 0.00 | 44 | 1019.2 |
| 20260502161737 | 11 | 17 | 6.4 | 9.7 | 0.00 | 0.00 | 0.00 | 46 | 1019.2 |
| 20260502161233 | 10 | 95 | 1.6 | 4.8 | 0.00 | 0.00 | 0.00 | 49 | 1019.3 |
| 20260502160732 | 10 | 44 | 1.6 | 4.8 | 0.00 | 0.00 | 0.00 | 50 | 1019.4 |
| 20260502160231 | 10 | 275 | 4.8 | 9.7 | 0.00 | 0.00 | 0.00 | 53 | 1019.3 |
| 20260502152155 | 10 | 129 | 1.6 | 3.2 | 0.00 | 0.00 | 0.00 | 51 | 1019.3 |
| 20260502151652 | 9 | 281 | 3.2 | 8.0 | 0.00 | 0.00 | 0.00 | 50 | 1019.5 |
| 20260502151149 | 10 | 50 | 4.8 | 4.8 | 0.00 | 0.00 | 0.00 | 52 | 1019.4 |
| 20260502150647 | 10 | 104 | 1.6 | 4.8 | 0.00 | 0.00 | 0.00 | 52 | 1019.4 |
| 20260502150143 | 9 | 339 | 1.6 | 3.2 | 0.00 | 0.00 | 0.00 | 51 | 1019.3 |
| 20260502140106 | 7 | 42 | 3.2 | 4.8 | 0.00 | 0.00 | 0.00 | 66 | 1019.7 |
| 20260502130532 | 3 | 116 | 0.0 | 0.0 | 0.00 | 0.00 | 0.00 | 98 | 1019.4 |
| 20260502123515 | 1 | 82 | 0.0 | 0.0 | 0.00 | 0.00 | 0.00 | 99 | 1019.4 |
| 20260502123011 | 1 | 88 | 0.0 | 0.0 | 0.00 | 0.00 | 0.00 | 99 | 1019.4 |
| 20260502122508 | 1 | 89 | 0.0 | 1.6 | 0.00 | 0.00 | 0.00 | 99 | 1019.3 |
| 20260502122006 | 1 | 95 | 0.0 | 0.0 | 0.00 | 0.00 | 0.00 | 99 | 1019.3 |
| 20260502121503 | 0 | 92 | 0.0 | 0.0 | 0.00 | 0.00 | 0.00 | 99 | 1019.2 |
| 20260502121000 | 0 | 99 | 0.0 | 0.0 | 0.00 | 0.00 | 0.00 | 99 | 1019.2 |
| 20260502120456 | 0 | 97 | 0.0 | 0.0 | 0.00 | 0.00 | 0.00 | 99 | 1019.1 |
| 20260502115450 | 0 | 98 | 0.0 | 0.0 | 0.00 | 0.00 | 0.00 | 99 | 1019.2 |
| 20260502114946 | 0 | 97 | 0.0 | 0.0 | 0.00 | 0.00 | 0.00 | 99 | 1019.2 |
| 20260502114443 | 0 | 96 | 0.0 | 0.0 | 0.00 | 0.00 | 0.00 | 99 | 1018.9 |
| 20260502113941 | -1 | 96 | 0.0 | 0.0 | 0.00 | 0.00 | 0.00 | 99 | 1018.8 |
| 20260502113438 | -1 | 94 | 0.0 | 0.0 | 0.00 | 0.00 | 0.00 | 99 | 1018.8 |
| 20260502112937 | -1 | 99 | 0.0 | 0.0 | 0.00 | 0.00 | 0.00 | 99 | 1018.9 |
| 20260502112434 | -1 | 99 | 0.0 | 0.0 | 0.00 | 0.00 | 0.00 | 99 | 1019.0 |
| 20260502111931 | -1 | 99 | 0.0 | 0.0 | 0.00 | 0.00 | 0.00 | 99 | 1018.6 |
| 20260502111428 | -1 | 99 | 0.0 | 0.0 | 0.00 | 0.00 | 0.00 | 99 | 1018.7 |
| 20260502110926 | -1 | 99 | 0.0 | 0.0 | 0.00 | 0.00 | 0.00 | 99 | 1018.8 |
| 20260502110423 | -1 | 97 | 0.0 | 0.0 | 0.00 | 0.00 | 0.00 | 99 | 1018.6 |
| 20260502105920 | -1 | 98 | 0.0 | 0.0 | 0.00 | 0.00 | 0.00 | 99 | 1018.8 |
| 20260502105417 | -1 | 98 | 0.0 | 0.0 | 0.00 | 0.00 | 0.00 | 99 | 1018.8 |
| 20260502104915 | -1 | 97 | 0.0 | 0.0 | 0.00 | 0.00 | 0.00 | 99 | 1018.6 |
| 20260502104407 | -1 | 96 | 0.0 | 0.0 | 0.00 | 0.00 | 0.00 | 99 | 1018.4 |
| 20260502103904 | -1 | 96 | 0.0 | 0.0 | 0.00 | 0.00 | 0.00 | 99 | 1018.5 |
| 20260502103402 | -1 | 96 | 0.0 | 0.0 | 0.00 | 0.00 | 0.00 | 99 | 1018.7 |
| 20260502102858 | -1 | 96 | 0.0 | 0.0 | 0.00 | 0.00 | 0.00 | 99 | 1018.7 |
| 20260502102355 | -1 | 94 | 0.0 | 0.0 | 0.00 | 0.00 | 0.00 | 99 | 1018.6 |
| 20260502101852 | -1 | 94 | 0.0 | 0.0 | 0.00 | 0.00 | 0.00 | 99 | 1018.6 |
| 20260502101351 | -1 | 95 | 0.0 | 0.0 | 0.00 | 0.00 | 0.00 | 99 | 1018.6 |
| 20260502100849 | -1 | 96 | 0.0 | 0.0 | 0.00 | 0.00 | 0.00 | 99 | 1018.7 |
| 20260502100348 | -1 | 96 | 0.0 | 0.0 | 0.00 | 0.00 | 0.00 | 99 | 1018.7 |
| 20260502091321 | -1 | 94 | 0.0 | 0.0 | 0.00 | 0.00 | 0.00 | 99 | 1018.6 |
| 20260502090819 | -1 | 97 | 0.0 | 0.0 | 0.00 | 0.00 | 0.00 | 99 | 1018.5 |
| 20260502090315 | -1 | 94 | 0.0 | 0.0 | 0.00 | 0.00 | 0.00 | 99 | 1018.6 |
| 20260502071211 | -1 | 101 | 0.0 | 0.0 | 0.00 | 0.00 | 0.00 | 99 | 1018.5 |
| 20260502070709 | -1 | 102 | 0.0 | 0.0 | 0.00 | 0.00 | 0.00 | 99 | 1018.7 |
| 20260502070206 | 0 | 93 | 0.0 | 0.0 | 0.00 | 0.00 | 0.00 | 99 | 1018.7 |
| 20260502065705 | 0 | 99 | 0.0 | 0.0 | 0.00 | 0.00 | 0.00 | 99 | 1018.7 |
| 20260502065202 | 0 | 99 | 0.0 | 0.0 | 0.00 | 0.00 | 0.00 | 99 | 1018.9 |
| 20260502064701 | 0 | 93 | 0.0 | 0.0 | 0.00 | 0.00 | 0.00 | 99 | 1018.7 |
| 20260502064157 | 0 | 103 | 0.0 | 0.0 | 0.00 | 0.00 | 0.00 | 99 | 1018.9 |
| 20260502063655 | 0 | 98 | 0.0 | 0.0 | 0.00 | 0.00 | 0.00 | 98 | 1018.9 |
| 20260502063153 | 0 | 95 | 0.0 | 0.0 | 0.00 | 0.00 | 0.00 | 98 | 1019.1 |
| 20260502062650 | 0 | 98 | 0.0 | 0.0 | 0.00 | 0.00 | 0.00 | 98 | 1018.8 |
| 20260502062147 | 0 | 90 | 0.0 | 0.0 | 0.00 | 0.00 | 0.00 | 98 | 1019.1 |
| 20260502061645 | 0 | 95 | 0.0 | 0.0 | 0.00 | 0.00 | 0.00 | 98 | 1019.0 |
| 20260502061143 | 0 | 95 | 0.0 | 0.0 | 0.00 | 0.00 | 0.00 | 98 | 1018.8 |
| 20260502060643 | 0 | 94 | 0.0 | 0.0 | 0.00 | 0.00 | 0.00 | 98 | 1019.1 |
| 20260502060140 | 0 | 95 | 0.0 | 0.0 | 0.00 | 0.00 | 0.00 | 97 | 1019.1 |
| 20260502055637 | 0 | 95 | 0.0 | 0.0 | 0.00 | 0.00 | 0.00 | 97 | 1019.0 |
| 20260502055135 | 0 | 95 | 0.0 | 0.0 | 0.00 | 0.00 | 0.00 | 97 | 1019.0 |
| 20260502054634 | 0 | 94 | 0.0 | 0.0 | 0.00 | 0.00 | 0.00 | 97 | 1019.0 |
| 20260502054131 | 0 | 92 | 0.0 | 0.0 | 0.00 | 0.00 | 0.00 | 97 | 1018.9 |
| 20260502053628 | 0 | 97 | 0.0 | 0.0 | 0.00 | 0.00 | 0.00 | 96 | 1019.2 |
| 20260502053125 | 0 | 95 | 0.0 | 0.0 | 0.00 | 0.00 | 0.00 | 96 | 1018.9 |
| 20260502052624 | 0 | 97 | 0.0 | 0.0 | 0.00 | 0.00 | 0.00 | 96 | 1019.2 |
| 20260502052122 | 0 | 96 | 0.0 | 0.0 | 0.00 | 0.00 | 0.00 | 96 | 1019.1 |
| 20260502051619 | 0 | 96 | 0.0 | 0.0 | 0.00 | 0.00 | 0.00 | 95 | 1019.1 |
| 20260502051117 | 0 | 96 | 0.0 | 0.0 | 0.00 | 0.00 | 0.00 | 95 | 1019.0 |
| 20260502050614 | 0 | 95 | 0.0 | 0.0 | 0.00 | 0.00 | 0.00 | 95 | 1019.0 |
| 20260502050110 | 0 | 95 | 0.0 | 0.0 | 0.00 | 0.00 | 0.00 | 95 | 1019.0 |
| 20260502045606 | 0 | 95 | 0.0 | 0.0 | 0.00 | 0.03 | 0.03 | 95 | 1019.0 |
| 20260502045104 | 0 | 95 | 0.0 | 0.0 | 0.00 | 0.03 | 0.03 | 95 | 1019.3 |
| 20260502044600 | 0 | 96 | 0.0 | 0.0 | 0.00 | 0.03 | 0.03 | 94 | 1019.3 |
| 20260502044057 | 0 | 96 | 0.0 | 0.0 | 0.00 | 0.03 | 0.03 | 94 | 1019.1 |
| 20260502043555 | 0 | 94 | 0.0 | 0.0 | 0.00 | 0.03 | 0.03 | 94 | 1019.2 |
| 20260502043050 | 0 | 96 | 0.0 | 0.0 | 0.00 | 0.03 | 0.03 | 94 | 1019.2 |
| 20260502042545 | 0 | 97 | 0.0 | 0.0 | 0.00 | 0.03 | 0.03 | 93 | 1019.1 |
| 20260502042043 | 0 | 102 | 0.0 | 0.0 | 0.00 | 0.03 | 0.03 | 93 | 1019.1 |
| 20260502041541 | 0 | 96 | 0.0 | 0.0 | 0.00 | 0.03 | 0.03 | 92 | 1019.2 |
| 20260502041038 | 0 | 96 | 0.0 | 0.0 | 0.00 | 0.03 | 0.03 | 92 | 1018.9 |
| 20260502040534 | 0 | 96 | 0.0 | 0.0 | 0.00 | 0.03 | 0.03 | 91 | 1019.1 |
| 20260502040031 | 0 | 95 | 0.0 | 0.0 | 0.00 | 0.03 | 0.03 | 91 | 1019.0 |
| 20260502035527 | 1 | 95 | 0.0 | 0.0 | 0.00 | 0.03 | 0.03 | 90 | 1019.0 |
| 20260502035025 | 1 | 96 | 0.0 | 0.0 | 0.00 | 0.03 | 0.03 | 89 | 1018.9 |
| 20260502034523 | 1 | 95 | 0.0 | 0.0 | 0.00 | 0.03 | 0.03 | 89 | 1018.7 |
| 20260502034021 | 1 | 96 | 0.0 | 0.0 | 0.00 | 0.03 | 0.03 | 88 | 1019.0 |
| 20260502033519 | 1 | 96 | 0.0 | 0.0 | 0.00 | 0.03 | 0.03 | 88 | 1018.7 |
| 20260502033016 | 1 | 96 | 0.0 | 0.0 | 0.00 | 0.03 | 0.03 | 87 | 1018.8 |
| 20260502032511 | 1 | 95 | 0.0 | 0.0 | 0.00 | 0.03 | 0.03 | 87 | 1018.7 |
| 20260502032009 | 2 | 96 | 0.0 | 0.0 | 0.00 | 0.03 | 0.03 | 86 | 1018.8 |
| 20260502031507 | 2 | 95 | 0.0 | 0.0 | 0.00 | 0.03 | 0.03 | 85 | 1019.0 |
| 20260502031004 | 2 | 95 | 0.0 | 0.0 | 0.00 | 0.03 | 0.03 | 84 | 1018.7 |
| 20260502030503 | 2 | 96 | 0.0 | 0.0 | 0.00 | 0.03 | 0.03 | 84 | 1018.8 |
| 20260502030000 | 2 | 91 | 0.0 | 0.0 | 0.00 | 0.03 | 0.03 | 83 | 1018.7 |
| 20260502025457 | 2 | 89 | 0.0 | 1.6 | 0.00 | 0.03 | 0.03 | 83 | 1018.6 |
| 20260502024955 | 2 | 86 | 0.0 | 0.0 | 0.00 | 0.03 | 0.03 | 83 | 1018.8 |
| 20260502024452 | 2 | 91 | 0.0 | 0.0 | 0.00 | 0.03 | 0.03 | 83 | 1018.7 |
| 20260502023951 | 2 | 79 | 0.0 | 1.6 | 0.00 | 0.03 | 0.03 | 83 | 1018.5 |
| 20260502023448 | 2 | 88 | 1.6 | 3.2 | 0.00 | 0.03 | 0.03 | 83 | 1018.5 |
| 20260502022945 | 2 | 67 | 1.6 | 1.6 | 0.00 | 0.03 | 0.03 | 83 | 1018.5 |
| 20260502022441 | 3 | 84 | 1.6 | 1.6 | 0.00 | 0.03 | 0.03 | 83 | 1018.6 |
| 20260502021939 | 3 | 81 | 1.6 | 4.8 | 0.00 | 0.03 | 0.03 | 82 | 1018.5 |
| 20260502021436 | 3 | 73 | 1.6 | 3.2 | 0.00 | 0.03 | 0.03 | 82 | 1018.4 |
| 20260502020933 | 3 | 52 | 4.8 | 4.8 | 0.00 | 0.03 | 0.03 | 82 | 1018.4 |
| 20260502020431 | 3 | 88 | 3.2 | 4.8 | 0.00 | 0.03 | 0.03 | 81 | 1018.1 |
| 20260502015927 | 3 | 65 | 1.6 | 3.2 | 0.00 | 0.03 | 0.03 | 80 | 1017.9 |
| 20260502015425 | 3 | 80 | 1.6 | 3.2 | 0.00 | 0.03 | 0.03 | 78 | 1018.1 |
| 20260502014922 | 3 | 60 | 3.2 | 3.2 | 0.00 | 0.03 | 0.03 | 76 | 1018.2 |
| 20260502014419 | 3 | 77 | 0.0 | 3.2 | 0.00 | 0.03 | 0.03 | 75 | 1018.1 |
| 20260502013915 | 3 | 84 | 1.6 | 3.2 | 0.00 | 0.03 | 0.03 | 74 | 1017.9 |
| 20260502013410 | 4 | 76 | 1.6 | 9.7 | 0.00 | 0.03 | 0.03 | 74 | 1018.0 |
| 20260502012907 | 4 | 62 | 3.2 | 3.2 | 0.00 | 0.03 | 0.03 | 74 | 1017.8 |
| 20260502012405 | 4 | 73 | 1.6 | 3.2 | 0.00 | 0.03 | 0.03 | 74 | 1017.7 |
| 20260502011903 | 4 | 88 | 1.6 | 8.0 | 0.00 | 0.03 | 0.03 | 74 | 1017.4 |
| 20260502011358 | 4 | 48 | 3.2 | 3.2 | 0.00 | 0.03 | 0.03 | 74 | 1017.7 |
| 20260502010855 | 5 | 43 | 3.2 | 4.8 | 0.00 | 0.03 | 0.03 | 74 | 1017.3 |
| 20260502010352 | 5 | 39 | 3.2 | 4.8 | 0.00 | 0.03 | 0.03 | 75 | 1017.2 |
| 20260502005849 | 5 | 108 | 1.6 | 8.0 | 0.00 | 0.03 | 0.03 | 75 | 1017.2 |
| 20260502005347 | 5 | 46 | 3.2 | 4.8 | 0.00 | 0.03 | 0.03 | 74 | 1017.3 |
| 20260502004844 | 5 | 79 | 1.6 | 4.8 | 0.00 | 0.03 | 0.03 | 74 | 1017.2 |
| 20260502004340 | 5 | 27 | 3.2 | 9.7 | 0.00 | 0.03 | 0.03 | 74 | 1017.1 |
| 20260502003838 | 6 | 41 | 4.8 | 8.0 | 0.00 | 0.03 | 0.03 | 74 | 1017.1 |
| 20260502003334 | 6 | 102 | 1.6 | 4.8 | 0.00 | 0.03 | 0.03 | 74 | 1017.0 |
| 20260502002831 | 6 | 58 | 1.6 | 8.0 | 0.00 | 0.03 | 0.03 | 73 | 1016.8 |
| 20260502002328 | 6 | 80 | 3.2 | 4.8 | 0.00 | 0.03 | 0.03 | 73 | 1016.9 |
| 20260502001825 | 6 | 66 | 3.2 | 4.8 | 0.00 | 0.03 | 0.03 | 74 | 1016.7 |
| 20260502001323 | 7 | 87 | 1.6 | 1.6 | 0.00 | 0.03 | 0.03 | 74 | 1016.7 |
| 20260502000821 | 7 | 58 | 1.6 | 3.2 | 0.00 | 0.03 | 0.03 | 74 | 1016.8 |
| 20260502000319 | 7 | 75 | 1.6 | 1.6 | 0.00 | 0.03 | 0.03 | 74 | 1016.8 |
| 20260501235814 | 7 | 75 | 3.2 | 3.2 | 0.00 | 0.03 | 0.03 | 74 | 1016.7 |
| 20260501235310 | 7 | 65 | 1.6 | 3.2 | 0.00 | 0.03 | 0.03 | 73 | 1016.7 |
| 20260501234805 | 7 | 79 | 1.6 | 1.6 | 0.00 | 0.03 | 0.03 | 74 | 1016.7 |
| 20260501234303 | 7 | 52 | 1.6 | 3.2 | 0.00 | 0.03 | 0.03 | 73 | 1016.5 |
| 20260501233801 | 7 | 123 | 1.6 | 3.2 | 0.00 | 0.03 | 0.03 | 73 | 1016.6 |
| 20260501233258 | 7 | 94 | 3.2 | 3.2 | 0.00 | 0.03 | 0.03 | 72 | 1016.6 |
| 20260501232754 | 7 | 80 | 3.2 | 4.8 | 0.00 | 0.03 | 0.03 | 71 | 1016.7 |
| 20260501232251 | 7 | 90 | 1.6 | 3.2 | 0.00 | 0.03 | 0.03 | 72 | 1016.6 |
| 20260501231749 | 7 | 47 | 1.6 | 3.2 | 0.00 | 0.03 | 0.03 | 72 | 1017.0 |
| 20260501231247 | 7 | 78 | 1.6 | 4.8 | 0.00 | 0.03 | 0.03 | 72 | 1016.7 |
| 20260501230745 | 7 | 56 | 1.6 | 4.8 | 0.00 | 0.03 | 0.03 | 72 | 1016.8 |
| 20260501230243 | 8 | 83 | 3.2 | 4.8 | 0.00 | 0.03 | 0.03 | 73 | 1016.7 |
| 20260501225740 | 7 | 71 | 1.6 | 3.2 | 0.00 | 0.03 | 0.03 | 72 | 1016.9 |
| 20260501225238 | 7 | 40 | 6.4 | 9.7 | 0.00 | 0.03 | 0.03 | 72 | 1016.9 |
| 20260501224733 | 7 | 93 | 3.2 | 4.8 | 0.00 | 0.03 | 0.03 | 72 | 1016.8 |
| 20260501224231 | 7 | 42 | 3.2 | 3.2 | 0.00 | 0.03 | 0.03 | 72 | 1016.9 |
| 20260501223727 | 7 | 45 | 1.6 | 3.2 | 0.00 | 0.03 | 0.03 | 72 | 1016.9 |
| 20260501223224 | 7 | 40 | 1.6 | 3.2 | 0.00 | 0.03 | 0.03 | 71 | 1016.7 |
| 20260501222720 | 7 | 75 | 1.6 | 4.8 | 0.00 | 0.03 | 0.03 | 70 | 1016.8 |
| 20260501222217 | 7 | 68 | 1.6 | 3.2 | 0.00 | 0.03 | 0.03 | 71 | 1016.9 |
| 20260501221714 | 8 | 64 | 1.6 | 3.2 | 0.00 | 0.03 | 0.03 | 71 | 1016.7 |
| 20260501221211 | 8 | 62 | 4.8 | 4.8 | 0.00 | 0.03 | 0.03 | 71 | 1016.9 |
| 20260501220709 | 8 | 57 | 1.6 | 3.2 | 0.00 | 0.03 | 0.03 | 70 | 1016.6 |
| 20260501220206 | 8 | 83 | 1.6 | 1.6 | 0.00 | 0.03 | 0.03 | 70 | 1016.7 |
| 20260501215703 | 8 | 11 | 3.2 | 3.2 | 0.00 | 0.03 | 0.03 | 69 | 1016.6 |
| 20260501215158 | 8 | 61 | 3.2 | 4.8 | 0.00 | 0.03 | 0.03 | 69 | 1016.5 |
| 20260501214653 | 8 | 72 | 1.6 | 4.8 | 0.00 | 0.03 | 0.03 | 68 | 1016.5 |
| 20260501214149 | 8 | 52 | 1.6 | 3.2 | 0.00 | 0.03 | 0.03 | 70 | 1016.6 |
| 20260501213646 | 8 | 69 | 3.2 | 4.8 | 0.00 | 0.03 | 0.03 | 68 | 1016.6 |
| 20260501213142 | 8 | 67 | 1.6 | 4.8 | 0.00 | 0.03 | 0.03 | 66 | 1016.5 |
| 20260501212639 | 8 | 167 | 1.6 | 3.2 | 0.00 | 0.03 | 0.03 | 65 | 1016.4 |
| 20260501212135 | 10 | 75 | 1.6 | 3.2 | 0.00 | 0.03 | 0.03 | 58 | 1016.3 |
| 20260501211632 | 10 | 73 | 1.6 | 3.2 | 0.00 | 0.03 | 0.03 | 59 | 1016.6 |
| 20260501211130 | 9 | 63 | 3.2 | 3.2 | 0.00 | 0.03 | 0.03 | 59 | 1016.4 |
| 20260501210626 | 9 | 157 | 1.6 | 4.8 | 0.00 | 0.03 | 0.03 | 60 | 1016.3 |
| 20260501210123 | 9 | 66 | 1.6 | 4.8 | 0.00 | 0.03 | 0.03 | 58 | 1016.4 |
| 20260501205619 | 9 | 250 | 3.2 | 3.2 | 0.00 | 0.03 | 0.03 | 59 | 1016.5 |
| 20260501205117 | 9 | 82 | 3.2 | 3.2 | 0.00 | 0.03 | 0.03 | 59 | 1016.5 |
| 20260501204613 | 8 | 54 | 1.6 | 4.8 | 0.00 | 0.03 | 0.03 | 58 | 1016.7 |
| 20260501204109 | 8 | 42 | 3.2 | 4.8 | 0.00 | 0.03 | 0.03 | 59 | 1016.4 |
| 20260501203606 | 8 | 269 | 4.8 | 4.8 | 0.00 | 0.03 | 0.03 | 58 | 1016.5 |
| 20260501203104 | 8 | 74 | 3.2 | 3.2 | 0.00 | 0.03 | 0.03 | 61 | 1016.6 |
| 20260501202601 | 8 | 86 | 1.6 | 3.2 | 0.00 | 0.03 | 0.03 | 58 | 1016.6 |
| 20260501202057 | 8 | 317 | 6.4 | 11.3 | 0.00 | 0.03 | 0.03 | 56 | 1016.5 |
| 20260501201554 | 8 | 41 | 1.6 | 3.2 | 0.00 | 0.03 | 0.03 | 59 | 1016.6 |
| 20260501201050 | 9 | 353 | 6.4 | 9.7 | 0.00 | 0.03 | 0.03 | 56 | 1016.5 |
| 20260501200548 | 9 | 43 | 3.2 | 3.2 | 0.00 | 0.03 | 0.03 | 59 | 1016.5 |
| 20260501200045 | 9 | 54 | 1.6 | 3.2 | 0.00 | 0.03 | 0.03 | 59 | 1016.7 |
| 20260501195543 | 9 | 91 | 1.6 | 3.2 | 0.00 | 0.03 | 0.03 | 54 | 1016.6 |
| 20260501195038 | 8 | 56 | 1.6 | 3.2 | 0.00 | 0.03 | 0.03 | 54 | 1016.6 |
| 20260501194533 | 8 | 87 | 1.6 | 3.2 | 0.00 | 0.03 | 0.03 | 56 | 1016.3 |
| 20260501194030 | 9 | 75 | 4.8 | 4.8 | 0.00 | 0.03 | 0.03 | 56 | 1016.5 |
| 20260501193527 | 9 | 91 | 1.6 | 3.2 | 0.00 | 0.03 | 0.03 | 56 | 1016.3 |
| 20260501193026 | 9 | 67 | 1.6 | 3.2 | 0.00 | 0.03 | 0.03 | 55 | 1016.4 |
| 20260501192522 | 10 | 69 | 1.6 | 3.2 | 0.00 | 0.03 | 0.03 | 54 | 1016.4 |
| 20260501192020 | 9 | 132 | 1.6 | 3.2 | 0.00 | 0.03 | 0.03 | 54 | 1016.3 |
| 20260501191517 | 9 | 89 | 4.8 | 8.0 | 0.00 | 0.03 | 0.03 | 53 | 1016.1 |